map of LHPA home
LHPA - Airport
Location
City:  Pápa, Veszprém, Hungary
Name:Pápa AB
ICAO:LHPA

Details
Type:Airport (Aerodrome, Airfield)
Use:Military
Latitude:47°21'48"N (47.363333)
Longitude:17°29'47"E (17.496389)
Elevation:480 ft (146 m)
Variation:4.64°E (WMM2015v2 magnetic declination)
0.15° annual change
Runways:unknown number
Longest:7800 ft (2377 m)

Time
Time Zone:UTC+1 (DST+2)
Local Time:

Weather
METAR:LHPA 041345Z 33014KT 310V020 9999 SCT033 05/M03 Q1029 NOSIG RMK BLU
TAF:LHPA 041115Z 0412/0512 34010KT CAVOK
TEMPO 0412/0416 34014G24KT
BECMG 0416/0418 35005KT
BECMG 0418/0420 VRB03KT
TEMPO 0422/0506 5000 BR NSC

Related Locations
Nearby:
Farthest:CHT: 11720 mi / 18862 km
Waitangi [Tuuta], CIT, NZ

Find:

   beyond  
but within

Other Information
Maps:
NOTAMs:
Links:
Sources:

  
  • flag of Hungary
  • flag of Veszprém
  

Sectional Chart

Flight Planning
at skyvector.com

Satellite Image

Google Maps Satellite view

 

Copyright © 2004-2019 Karl L. Swartz. All rights reserved.
The Great Circle Mapper name and logo are trademarks of the Great Circle Mapper.
All other trademarks mentioned herein belong to their respective owners.
Please see credits for attibutions and further copyright information.

  Follow gcmap on Facebook Follow gcmap on Twitter GCmap on LinkedIn

hCard Microformat

Geo Microformat